Location: Holkham
(52.9500°N, 0.8167°E)
Time: 05:10:02
(UTC+00:00)

Cosmos 2221 - Pass Details

Date: 25 December 2025
Orbit: 569 x 589 km, 82.5° (Epoch: 24 January)

Event Time Altitude Azimuth Distance (km) Brightness Sun altitude
Rises 19:15:38 0° 247° (WSW) 2,779 6.9 -30.2°
Reaches altitude 10° 19:19:09 10° 278° (W) 1,883 5.9 -30.7°
Maximum altitude 19:20:48 12° 302° (WNW) 1,752 5.5 -30.9°
Drops below altitude 10° 19:22:28 10° 326° (NW) 1,886 5.4 -31.2°
Enters shadow 19:23:35 - 339° (NNW) 2,104 5.5 -31.4°
